Donnes mto: Actuelle mercredi, 20/02/2019 11:10
Date Horaire Temp. E. Hum. E. P.atmo. Pluie Vent Direction Direction Ensoleilleme Ev.Tr. Solaire P. de rose Temp au vent Rafales
20/02/2019 11:10 9,9 C 93 % 1024,6 hPa 0,0 mm 5,1 km/h (1 Bft) SE 145 5 min 0,000 mm 387 W/m 8,8 C 9,6 C 9,7 km/h (2 Bft)
20/02/2019 11:05 8,9 C 95 % 1024,6 hPa 0,0 mm 2,2 km/h (1 Bft) S-SO 195 5 min 0,000 mm 371 W/m 8,1 C 8,9 C 12,9 km/h (3 Bft)
20/02/2019 11:00 8,1 C 96 % 1024,6 hPa 0,0 mm 0,0 km/h (0 Bft) E-NE 72 5 min 0,102 mm 364 W/m 7,5 C 8,1 C 0,0 km/h (0 Bft)
20/02/2019 10:55 7,7 C 97 % 1024,6 hPa 0,0 mm 0,0 km/h (0 Bft) E-NE 73 5 min 0,000 mm 352 W/m 7,3 C 7,7 C 0,0 km/h (0 Bft)
20/02/2019 10:50 7,4 C 98 % 1024,5 hPa 0,0 mm 1,0 km/h (0 Bft) E-NE 73 5 min 0,000 mm 341 W/m 7,1 C 7,4 C 3,2 km/h (1 Bft)
20/02/2019 10:45 6,8 C 98 % 1024,4 hPa 0,0 mm 2,6 km/h (1 Bft) E-NE 73 5 min 0,000 mm 330 W/m 6,5 C 6,8 C 8,0 km/h (2 Bft)
20/02/2019 10:40 6,2 C 98 % 1024,3 hPa 0,0 mm 3,5 km/h (1 Bft) E-NE 73 5 min 0,000 mm 320 W/m 5,9 C 6,2 C 6,4 km/h (2 Bft)
20/02/2019 10:35 5,7 C 98 % 1024,4 hPa 0,0 mm 3,4 km/h (1 Bft) E-NE 77 5 min 0,000 mm 308 W/m 5,4 C 5,7 C 6,4 km/h (2 Bft)
20/02/2019 10:30 5,3 C 98 % 1024,4 hPa 0,0 mm 3,4 km/h (1 Bft) E-NE 78 5 min 0,000 mm 292 W/m 5,0 C 5,3 C 6,4 km/h (2 Bft)
20/02/2019 10:25 4,9 C 98 % 1024,4 hPa 0,0 mm 1,7 km/h (1 Bft) E 79 5 min 0,000 mm 248 W/m 4,6 C 4,9 C 4,8 km/h (1 Bft)
20/02/2019 10:20 4,5 C 98 % 1024,3 hPa 0,0 mm 0,0 km/h (0 Bft) E 80 0 min 0,000 mm 195 W/m 4,2 C 4,5 C 0,0 km/h (0 Bft)
20/02/2019 10:15 4,2 C 98 % 1024,3 hPa 0,0 mm 0,0 km/h (0 Bft) E 79 0 min 0,000 mm 127 W/m 3,9 C 4,2 C 0,0 km/h (0 Bft)
20/02/2019 10:10 3,9 C 98 % 1024,3 hPa 0,0 mm 1,2 km/h (1 Bft) E 79 0 min 0,000 mm 123 W/m 3,6 C 3,9 C 4,8 km/h (1 Bft)
20/02/2019 10:05 3,8 C 98 % 1024,2 hPa 0,0 mm 0,0 km/h (0 Bft) E 82 0 min 0,000 mm 104 W/m 3,5 C 3,8 C 0,0 km/h (0 Bft)
20/02/2019 10:00 3,8 C 98 % 1024,2 hPa 0,0 mm 0,0 km/h (0 Bft) E 82 0 min 0,025 mm 128 W/m 3,5 C 3,8 C 0,0 km/h (0 Bft)
20/02/2019 09:55 3,4 C 98 % 1024,2 hPa 0,0 mm 0,0 km/h (0 Bft) E 81 0 min 0,000 mm 111 W/m 3,1 C 3,4 C 0,0 km/h (0 Bft)
20/02/2019 09:50 2,8 C 98 % 1024,1 hPa 0,0 mm 0,0 km/h (0 Bft) E 83 0 min 0,000 mm 123 W/m 2,5 C 2,8 C 0,0 km/h (0 Bft)
20/02/2019 09:45 2,5 C 98 % 1024,0 hPa 0,0 mm 2,5 km/h (1 Bft) E 83 0 min 0,000 mm 158 W/m 2,2 C 2,5 C 6,4 km/h (2 Bft)
20/02/2019 09:40 2,2 C 98 % 1023,9 hPa 0,0 mm 0,7 km/h (0 Bft) E 82 0 min 0,000 mm 134 W/m 1,9 C 2,2 C 6,4 km/h (2 Bft)
20/02/2019 09:35 1,7 C 98 % 1023,8 hPa 0,0 mm 3,2 km/h (1 Bft) E 83 0 min 0,000 mm 128 W/m 1,4 C 1,7 C 6,4 km/h (2 Bft)
20/02/2019 09:30 1,4 C 98 % 1023,8 hPa 0,0 mm 4,9 km/h (1 Bft) E 82 0 min 0,000 mm 90 W/m 1,1 C 0,0 C 6,4 km/h (2 Bft)
20/02/2019 09:25 1,2 C 98 % 1023,8 hPa 0,2 mm 2,8 km/h (1 Bft) E 82 0 min 0,000 mm 104 W/m 0,9 C 1,2 C 6,4 km/h (2 Bft)
20/02/2019 09:20 1,0 C 98 % 1023,8 hPa 0,0 mm 3,2 km/h (1 Bft) E 82 0 min 0,000 mm 98 W/m 0,7 C 1,0 C 6,4 km/h (2 Bft)
20/02/2019 09:15 0,7 C 98 % 1023,8 hPa 0,0 mm 3,3 km/h (1 Bft) E 82 0 min 0,000 mm 90 W/m 0,4 C 0,7 C 6,4 km/h (2 Bft)
20/02/2019 09:10 0,4 C 98 % 1023,8 hPa 0,0 mm 3,0 km/h (1 Bft) E 82 0 min 0,000 mm 77 W/m 0,1 C 0,4 C 6,4 km/h (2 Bft)
20/02/2019 09:05 0,2 C 97 % 1023,8 hPa 0,0 mm 2,9 km/h (1 Bft) E 81 0 min 0,000 mm 65 W/m -0,2 C 0,2 C 6,4 km/h (2 Bft)
20/02/2019 09:00 0,1 C 98 % 1023,8 hPa 0,0 mm 3,7 km/h (1 Bft) E 82 0 min 0,000 mm 67 W/m -0,2 C 0,1 C 6,4 km/h (2 Bft)
20/02/2019 08:55 -0,1 C 97 % 1023,7 hPa 0,0 mm 3,3 km/h (1 Bft) E 84 0 min 0,000 mm 58 W/m -0,5 C -0,1 C 6,4 km/h (2 Bft)
20/02/2019 08:50 -0,3 C 97 % 1023,7 hPa 0,0 mm 3,4 km/h (1 Bft) E 82 0 min 0,000 mm 47 W/m -0,7 C -0,3 C 6,4 km/h (2 Bft)
20/02/2019 08:45 -0,4 C 97 % 1023,6 hPa 0,0 mm 3,0 km/h (1 Bft) E 83 0 min 0,000 mm 42 W/m -0,8 C -0,4 C 6,4 km/h (2 Bft)
20/02/2019 08:40 -0,5 C 97 % 1023,6 hPa 0,0 mm 2,5 km/h (1 Bft) E 82 0 min 0,000 mm 39 W/m -0,9 C -0,5 C 6,4 km/h (2 Bft)
20/02/2019 08:35 -0,6 C 97 % 1023,5 hPa 0,0 mm 2,6 km/h (1 Bft) E 83 0 min 0,000 mm 35 W/m -1,0 C -0,6 C 4,8 km/h (1 Bft)
20/02/2019 08:30 -0,6 C 97 % 1023,5 hPa 0,0 mm 2,9 km/h (1 Bft) E 83 0 min 0,000 mm 30 W/m -1,0 C -0,6 C 4,8 km/h (1 Bft)
20/02/2019 08:25 -0,7 C 97 % 1023,4 hPa 0,0 mm 3,4 km/h (1 Bft) E 83 0 min 0,000 mm 26 W/m -1,1 C -0,7 C 6,4 km/h (2 Bft)
20/02/2019 08:20 -0,8 C 97 % 1023,3 hPa 0,0 mm 3,2 km/h (1 Bft) E 83 0 min 0,000 mm 21 W/m -1,2 C -0,8 C 6,4 km/h (2 Bft)
20/02/2019 08:15 -0,8 C 97 % 1023,3 hPa 0,0 mm 3,6 km/h (1 Bft) E 82 0 min 0,000 mm 16 W/m -1,2 C -0,8 C 6,4 km/h (2 Bft)
20/02/2019 08:10 -0,8 C 97 % 1023,3 hPa 0,0 mm 4,6 km/h (1 Bft) E 83 0 min 0,000 mm 14 W/m -1,2 C -2,3 C 8,0 km/h (2 Bft)
20/02/2019 08:05 -0,8 C 97 % 1023,2 hPa 0,0 mm 5,5 km/h (1 Bft) E 83 0 min 0,000 mm 9 W/m -1,2 C -2,7 C 8,0 km/h (2 Bft)
20/02/2019 08:00 -0,7 C 97 % 1023,1 hPa 0,0 mm 4,0 km/h (1 Bft) E 95 0 min 0,000 mm 5 W/m -1,1 C -0,7 C 6,4 km/h (2 Bft)
20/02/2019 07:55 -0,7 C 97 % 1023,1 hPa 0,0 mm 2,8 km/h (1 Bft) E 96 0 min 0,000 mm 0 W/m -1,1 C -0,7 C 6,4 km/h (2 Bft)
20/02/2019 07:50 -0,7 C 97 % 1023,0 hPa 0,0 mm 3,0 km/h (1 Bft) E 96 0 min 0,000 mm 0 W/m -1,1 C -0,7 C 6,4 km/h (2 Bft)
20/02/2019 07:45 -0,8 C 97 % 1022,9 hPa 0,0 mm 2,5 km/h (1 Bft) E 95 0 min 0,000 mm 0 W/m -1,2 C -0,8 C 4,8 km/h (1 Bft)
20/02/2019 07:40 -0,8 C 97 % 1022,9 hPa 0,0 mm 3,1 km/h (1 Bft) E 96 0 min 0,000 mm 0 W/m -1,2 C -0,8 C 6,4 km/h (2 Bft)
20/02/2019 07:35 -0,8 C 97 % 1022,8 hPa 0,0 mm 4,0 km/h (1 Bft) E 96 0 min 0,000 mm 0 W/m -1,2 C -0,8 C 6,4 km/h (2 Bft)
20/02/2019 07:30 -0,8 C 97 % 1022,9 hPa 0,0 mm 2,9 km/h (1 Bft) E 97 0 min 0,000 mm 0 W/m -1,2 C -0,8 C 4,8 km/h (1 Bft)
20/02/2019 07:25 -0,8 C 97 % 1022,8 hPa 0,0 mm 3,1 km/h (1 Bft) E 97 0 min 0,000 mm 0 W/m -1,2 C -0,8 C 6,4 km/h (2 Bft)
20/02/2019 07:20 -0,8 C 97 % 1022,8 hPa 0,0 mm 3,5 km/h (1 Bft) E 97 0 min 0,000 mm 0 W/m -1,2 C -0,8 C 6,4 km/h (2 Bft)
20/02/2019 07:15 -0,8 C 97 % 1022,7 hPa 0,0 mm 3,6 km/h (1 Bft) E 97 0 min 0,000 mm 0 W/m -1,2 C -0,8 C 6,4 km/h (2 Bft)
20/02/2019 07:10 -0,8 C 97 % 1022,7 hPa 0,0 mm 3,8 km/h (1 Bft) E-SE 103 0 min 0,000 mm 0 W/m -1,2 C -0,8 C 6,4 km/h (2 Bft)
20/02/2019 07:05 -0,7 C 97 % 1022,8 hPa 0,0 mm 3,9 km/h (1 Bft) E-SE 106 0 min 0,000 mm 0 W/m -1,1 C -0,7 C 6,4 km/h (2 Bft)
20/02/2019 07:00 -0,7 C 97 % 1022,7 hPa 0,0 mm 4,6 km/h (1 Bft) E-SE 106 0 min 0,000 mm 0 W/m -1,1 C -2,2 C 6,4 km/h (2 Bft)
20/02/2019 06:55 -0,7 C 97 % 1022,7 hPa 0,0 mm 3,9 km/h (1 Bft) E-SE 105 0 min 0,000 mm 0 W/m -1,1 C -0,7 C 6,4 km/h (2 Bft)
20/02/2019 06:50 -0,7 C 97 % 1022,7 hPa 0,0 mm 3,0 km/h (1 Bft) E-SE 106 0 min 0,000 mm 0 W/m -1,1 C -0,7 C 6,4 km/h (2 Bft)
20/02/2019 06:45 -0,7 C 97 % 1022,7 hPa 0,0 mm 3,0 km/h (1 Bft) E-SE 105 0 min 0,000 mm 0 W/m -1,1 C -0,7 C 6,4 km/h (2 Bft)
20/02/2019 06:40 -0,7 C 97 % 1022,7 hPa 0,0 mm 3,8 km/h (1 Bft) E-SE 106 0 min 0,000 mm 0 W/m -1,1 C -0,7 C 6,4 km/h (2 Bft)
20/02/2019 06:35 -0,7 C 97 % 1022,6 hPa 0,0 mm 3,4 km/h (1 Bft) E-SE 107 0 min 0,000 mm 0 W/m -1,1 C -0,7 C 6,4 km/h (2 Bft)
20/02/2019 06:30 -0,6 C 97 % 1022,6 hPa 0,0 mm 3,5 km/h (1 Bft) E-SE 106 0 min 0,000 mm 0 W/m -1,0 C -0,6 C 6,4 km/h (2 Bft)
20/02/2019 06:25 -0,6 C 97 % 1022,6 hPa 0,0 mm 3,4 km/h (1 Bft) E-SE 106 0 min 0,000 mm 0 W/m -1,0 C -0,6 C 4,8 km/h (1 Bft)
20/02/2019 06:20 -0,4 C 97 % 1022,5 hPa 0,0 mm 2,9 km/h (1 Bft) E-SE 106 0 min 0,000 mm 0 W/m -0,8 C -0,4 C 6,4 km/h (2 Bft)
20/02/2019 06:15 -0,4 C 97 % 1022,6 hPa 0,0 mm 2,6 km/h (1 Bft) E-SE 105 0 min 0,000 mm 0 W/m -0,8 C -0,4 C 4,8 km/h (1 Bft)
20/02/2019 06:10 -0,4 C 97 % 1022,6 hPa 0,0 mm 3,1 km/h (1 Bft) E-SE 106 0 min 0,000 mm 0 W/m -0,8 C -0,4 C 6,4 km/h (2 Bft)
20/02/2019 06:05 -0,4 C 97 % 1022,6 hPa 0,0 mm 2,3 km/h (1 Bft) E-SE 104 0 min 0,000 mm 0 W/m -0,8 C -0,4 C 4,8 km/h (1 Bft)
20/02/2019 06:00 -0,3 C 97 % 1022,6 hPa 0,0 mm 4,4 km/h (1 Bft) E-SE 106 0 min 0,000 mm 0 W/m -0,7 C -0,3 C 6,4 km/h (2 Bft)
20/02/2019 05:55 -0,3 C 97 % 1022,6 hPa 0,0 mm 3,0 km/h (1 Bft) E-SE 108 0 min 0,000 mm 0 W/m -0,7 C -0,3 C 6,4 km/h (2 Bft)
20/02/2019 05:50 -0,2 C 97 % 1022,6 hPa 0,0 mm 3,1 km/h (1 Bft) E-SE 107 0 min 0,000 mm 0 W/m -0,6 C -0,2 C 6,4 km/h (2 Bft)
20/02/2019 05:45 -0,1 C 97 % 1022,6 hPa 0,0 mm 2,2 km/h (1 Bft) E-SE 107 0 min 0,000 mm 0 W/m -0,5 C -0,1 C 4,8 km/h (1 Bft)
20/02/2019 05:40 -0,1 C 97 % 1022,6 hPa 0,0 mm 2,2 km/h (1 Bft) E-SE 108 0 min 0,000 mm 0 W/m -0,5 C -0,1 C 3,2 km/h (1 Bft)
20/02/2019 05:35 0,0 C 97 % 1022,5 hPa 0,0 mm 2,1 km/h (1 Bft) E-SE 108 0 min 0,000 mm 0 W/m -0,4 C 0,0 C 3,2 km/h (1 Bft)
20/02/2019 05:30 0,1 C 97 % 1022,4 hPa 0,0 mm 2,0 km/h (1 Bft) E-SE 107 0 min 0,000 mm 0 W/m -0,3 C 0,1 C 3,2 km/h (1 Bft)
20/02/2019 05:25 0,1 C 97 % 1022,5 hPa 0,0 mm 3,1 km/h (1 Bft) E-SE 107 0 min 0,000 mm 0 W/m -0,3 C 0,1 C 6,4 km/h (2 Bft)
20/02/2019 05:20 0,2 C 97 % 1022,4 hPa 0,0 mm 3,6 km/h (1 Bft) E 87 0 min 0,000 mm 0 W/m -0,2 C 0,2 C 8,0 km/h (2 Bft)
20/02/2019 05:15 0,3 C 97 % 1022,4 hPa 0,0 mm 3,1 km/h (1 Bft) E 100 0 min 0,000 mm 0 W/m -0,1 C 0,3 C 6,4 km/h (2 Bft)
20/02/2019 05:10 0,4 C 97 % 1022,3 hPa 0,0 mm 2,8 km/h (1 Bft) E 100 0 min 0,000 mm 0 W/m -0,0 C 0,4 C 6,4 km/h (2 Bft)
20/02/2019 05:05 0,5 C 97 % 1022,2 hPa 0,0 mm 3,1 km/h (1 Bft) E 100 0 min 0,000 mm 0 W/m 0,1 C 0,5 C 6,4 km/h (2 Bft)
20/02/2019 05:00 0,6 C 97 % 1022,2 hPa 0,0 mm 3,3 km/h (1 Bft) E 101 0 min 0,000 mm 0 W/m 0,2 C 0,6 C 6,4 km/h (2 Bft)
20/02/2019 04:55 0,7 C 97 % 1022,3 hPa 0,0 mm 2,7 km/h (1 Bft) E 100 0 min 0,000 mm 0 W/m 0,3 C 0,7 C 6,4 km/h (2 Bft)
20/02/2019 04:50 0,7 C 97 % 1022,2 hPa 0,0 mm 2,7 km/h (1 Bft) E 99 0 min 0,000 mm 0 W/m 0,3 C 0,7 C 6,4 km/h (2 Bft)
20/02/2019 04:45 0,6 C 97 % 1022,2 hPa 0,0 mm 3,6 km/h (1 Bft) E 100 0 min 0,000 mm 0 W/m 0,2 C 0,6 C 8,0 km/h (2 Bft)
20/02/2019 04:40 0,6 C 97 % 1022,2 hPa 0,0 mm 3,0 km/h (1 Bft) E 97 0 min 0,000 mm 0 W/m 0,2 C 0,6 C 6,4 km/h (2 Bft)
20/02/2019 04:35 0,6 C 97 % 1022,2 hPa 0,0 mm 2,6 km/h (1 Bft) E 97 0 min 0,000 mm 0 W/m 0,2 C 0,6 C 4,8 km/h (1 Bft)
20/02/2019 04:30 0,6 C 97 % 1022,2 hPa 0,0 mm 3,7 km/h (1 Bft) E 97 0 min 0,000 mm 0 W/m 0,2 C 0,6 C 9,7 km/h (2 Bft)
20/02/2019 04:25 0,7 C 97 % 1022,2 hPa 0,0 mm 3,9 km/h (1 Bft) E-SE 103 0 min 0,000 mm 0 W/m 0,3 C 0,7 C 9,7 km/h (2 Bft)
20/02/2019 04:20 0,8 C 97 % 1022,3 hPa 0,0 mm 4,0 km/h (1 Bft) E 95 0 min 0,000 mm 0 W/m 0,4 C 0,8 C 6,4 km/h (2 Bft)
20/02/2019 04:15 0,8 C 97 % 1022,3 hPa 0,0 mm 4,4 km/h (1 Bft) E 88 0 min 0,000 mm 0 W/m 0,4 C 0,8 C 8,0 km/h (2 Bft)
20/02/2019 04:10 0,7 C 97 % 1022,3 hPa 0,0 mm 5,0 km/h (1 Bft) E 80 0 min 0,000 mm 0 W/m 0,3 C -0,8 C 8,0 km/h (2 Bft)
20/02/2019 04:05 0,7 C 97 % 1022,4 hPa 0,0 mm 5,3 km/h (1 Bft) E 83 0 min 0,000 mm 0 W/m 0,3 C -0,9 C 9,7 km/h (2 Bft)
20/02/2019 04:00 0,6 C 97 % 1022,3 hPa 0,0 mm 4,5 km/h (1 Bft) E 101 0 min 0,000 mm 0 W/m 0,2 C 0,6 C 8,0 km/h (2 Bft)
20/02/2019 03:55 0,6 C 97 % 1022,4 hPa 0,0 mm 3,6 km/h (1 Bft) E-SE 102 0 min 0,000 mm 0 W/m 0,2 C 0,6 C 8,0 km/h (2 Bft)
20/02/2019 03:50 0,6 C 97 % 1022,5 hPa 0,0 mm 5,7 km/h (1 Bft) E 97 0 min 0,000 mm 0 W/m 0,2 C -1,2 C 8,0 km/h (2 Bft)
20/02/2019 03:45 0,5 C 97 % 1022,5 hPa 0,0 mm 4,4 km/h (1 Bft) E 101 0 min 0,000 mm 0 W/m 0,1 C 0,5 C 9,7 km/h (2 Bft)
20/02/2019 03:40 0,5 C 96 % 1022,5 hPa 0,0 mm 5,1 km/h (1 Bft) E-SE 108 0 min 0,000 mm 0 W/m -0,1 C -1,1 C 9,7 km/h (2 Bft)
20/02/2019 03:35 0,6 C 97 % 1022,6 hPa 0,0 mm 5,3 km/h (1 Bft) E 100 0 min 0,000 mm 0 W/m 0,2 C -1,0 C 9,7 km/h (2 Bft)
20/02/2019 03:30 0,7 C 97 % 1022,7 hPa 0,0 mm 4,9 km/h (1 Bft) E-SE 103 0 min 0,000 mm 0 W/m 0,3 C -0,7 C 9,7 km/h (2 Bft)
20/02/2019 03:25 0,7 C 97 % 1022,7 hPa 0,0 mm 3,3 km/h (1 Bft) E-SE 103 0 min 0,000 mm 0 W/m 0,3 C 0,7 C 6,4 km/h (2 Bft)
20/02/2019 03:20 0,8 C 96 % 1022,7 hPa 0,0 mm 4,1 km/h (1 Bft) E 100 0 min 0,000 mm 0 W/m 0,2 C 0,8 C 8,0 km/h (2 Bft)
20/02/2019 03:15 0,8 C 96 % 1022,8 hPa 0,0 mm 3,5 km/h (1 Bft) E-SE 114 0 min 0,000 mm 0 W/m 0,2 C 0,8 C 6,4 km/h (2 Bft)
20/02/2019 03:10 0,8 C 96 % 1022,8 hPa 0,0 mm 3,0 km/h (1 Bft) E-SE 112 0 min 0,000 mm 0 W/m 0,2 C 0,8 C 6,4 km/h (2 Bft)
20/02/2019 03:05 0,8 C 96 % 1022,9 hPa 0,0 mm 0,6 km/h (0 Bft) E-SE 115 0 min 0,000 mm 0 W/m 0,2 C 0,8 C 3,2 km/h (1 Bft)
20/02/2019 03:00 0,8 C 96 % 1022,9 hPa 0,0 mm 0,6 km/h (0 Bft) E-SE 115 0 min 0,000 mm 0 W/m 0,2 C 0,8 C 3,2 km/h (1 Bft)
20/02/2019 02:55 0,8 C 96 % 1023,0 hPa 0,0 mm 1,8 km/h (1 Bft) E-SE 114 0 min 0,000 mm 0 W/m 0,2 C 0,8 C 6,4 km/h (2 Bft)
20/02/2019 02:50 0,8 C 96 % 1023,0 hPa 0,0 mm 0,0 km/h (0 Bft) E 101 0 min 0,000 mm 0 W/m 0,2 C 0,8 C 0,0 km/h (0 Bft)
20/02/2019 02:45 0,8 C 96 % 1023,0 hPa 0,0 mm 0,0 km/h (0 Bft) E 101 0 min 0,000 mm 0 W/m 0,2 C 0,8 C 0,0 km/h (0 Bft)
20/02/2019 02:40 0,8 C 96 % 1023,0 hPa 0,0 mm 0,0 km/h (0 Bft) E-SE 102 0 min 0,000 mm 0 W/m 0,2 C 0,8 C 0,0 km/h (0 Bft)
20/02/2019 02:35 0,8 C 96 % 1023,0 hPa 0,0 mm 0,0 km/h (0 Bft) E 100 0 min 0,000 mm 0 W/m 0,2 C 0,8 C 0,0 km/h (0 Bft)
20/02/2019 02:30 0,8 C 96 % 1023,0 hPa 0,0 mm 0,0 km/h (0 Bft) E 100 0 min 0,000 mm 0 W/m 0,2 C 0,8 C 0,0 km/h (0 Bft)
20/02/2019 02:25 0,8 C 96 % 1023,0 hPa 0,0 mm 0,0 km/h (0 Bft) E 100 0 min 0,000 mm 0 W/m 0,2 C 0,8 C 0,0 km/h (0 Bft)
20/02/2019 02:20 0,8 C 96 % 1022,9 hPa 0,0 mm 0,0 km/h (0 Bft) E 100 0 min 0,000 mm 0 W/m 0,2 C 0,8 C 0,0 km/h (0 Bft)
20/02/2019 02:15 0,8 C 96 % 1022,9 hPa 0,0 mm 0,0 km/h (0 Bft) E-SE 102 0 min 0,000 mm 0 W/m 0,2 C 0,8 C 0,0 km/h (0 Bft)
20/02/2019 02:10 0,9 C 96 % 1022,9 hPa 0,0 mm 0,0 km/h (0 Bft) E 100 0 min 0,000 mm 0 W/m 0,3 C 0,9 C 0,0 km/h (0 Bft)
20/02/2019 02:05 1,0 C 96 % 1022,9 hPa 0,0 mm 0,0 km/h (0 Bft) E 101 0 min 0,000 mm 0 W/m 0,4 C 1,0 C 0,0 km/h (0 Bft)
20/02/2019 02:00 1,2 C 96 % 1022,8 hPa 0,0 mm 0,0 km/h (0 Bft) E 101 0 min 0,000 mm 0 W/m 0,6 C 1,2 C 0,0 km/h (0 Bft)
20/02/2019 01:55 1,3 C 96 % 1022,8 hPa 0,0 mm 0,0 km/h (0 Bft) E-SE 104 0 min 0,000 mm 0 W/m 0,7 C 1,3 C 0,0 km/h (0 Bft)
20/02/2019 01:50 1,4 C 96 % 1022,9 hPa 0,0 mm 0,0 km/h (0 Bft) E 101 0 min 0,000 mm 0 W/m 0,8 C 1,4 C 0,0 km/h (0 Bft)
20/02/2019 01:45 1,6 C 96 % 1022,8 hPa 0,0 mm 0,0 km/h (0 Bft) E 100 0 min 0,000 mm 0 W/m 1,0 C 1,6 C 0,0 km/h (0 Bft)
20/02/2019 01:40 1,7 C 96 % 1022,8 hPa 0,0 mm 0,0 km/h (0 Bft) E 101 0 min 0,000 mm 0 W/m 1,1 C 1,7 C 0,0 km/h (0 Bft)
20/02/2019 01:35 1,8 C 96 % 1022,8 hPa 0,0 mm 0,0 km/h (0 Bft) E 101 0 min 0,000 mm 0 W/m 1,2 C 1,8 C 0,0 km/h (0 Bft)
20/02/2019 01:30 1,9 C 96 % 1022,7 hPa 0,0 mm 0,0 km/h (0 Bft) E 101 0 min 0,000 mm 0 W/m 1,3 C 1,9 C 0,0 km/h (0 Bft)
20/02/2019 01:25 1,9 C 96 % 1022,7 hPa 0,0 mm 0,0 km/h (0 Bft) E 100 0 min 0,000 mm 0 W/m 1,3 C 1,9 C 0,0 km/h (0 Bft)
20/02/2019 01:20 1,9 C 96 % 1022,6 hPa 0,0 mm 0,0 km/h (0 Bft) E-SE 102 0 min 0,000 mm 0 W/m 1,3 C 1,9 C 0,0 km/h (0 Bft)
20/02/2019 01:15 1,9 C 96 % 1022,6 hPa 0,0 mm 0,0 km/h (0 Bft) E 100 0 min 0,000 mm 0 W/m 1,3 C 1,9 C 0,0 km/h (0 Bft)
20/02/2019 01:10 1,9 C 96 % 1022,6 hPa 0,0 mm 0,0 km/h (0 Bft) E 101 0 min 0,000 mm 0 W/m 1,3 C 1,9 C 0,0 km/h (0 Bft)
20/02/2019 01:05 1,8 C 96 % 1022,5 hPa 0,0 mm 0,0 km/h (0 Bft) E 100 0 min 0,000 mm 0 W/m 1,2 C 1,8 C 0,0 km/h (0 Bft)
20/02/2019 01:00 1,8 C 96 % 1022,5 hPa 0,0 mm 0,0 km/h (0 Bft) E 100 0 min 0,000 mm 0 W/m 1,2 C 1,8 C 0,0 km/h (0 Bft)
20/02/2019 00:55 1,9 C 96 % 1022,5 hPa 0,0 mm 0,0 km/h (0 Bft) E 101 0 min 0,000 mm 0 W/m 1,3 C 1,9 C 0,0 km/h (0 Bft)
20/02/2019 00:50 2,1 C 96 % 1022,5 hPa 0,0 mm 0,0 km/h (0 Bft) E 101 0 min 0,000 mm 0 W/m 1,5 C 2,1 C 0,0 km/h (0 Bft)
20/02/2019 00:45 2,3 C 96 % 1022,4 hPa 0,0 mm 0,0 km/h (0 Bft) E 100 0 min 0,000 mm 0 W/m 1,7 C 2,3 C 0,0 km/h (0 Bft)
20/02/2019 00:40 2,3 C 96 % 1022,4 hPa 0,0 mm 0,0 km/h (0 Bft) E 100 0 min 0,000 mm 0 W/m 1,7 C 2,3 C 0,0 km/h (0 Bft)
20/02/2019 00:35 2,3 C 96 % 1022,3 hPa 0,0 mm 0,5 km/h (0 Bft) E 100 0 min 0,000 mm 0 W/m 1,7 C 2,3 C 6,4 km/h (2 Bft)
20/02/2019 00:30 2,4 C 96 % 1022,3 hPa 0,0 mm 1,2 km/h (1 Bft) E 101 0 min 0,000 mm 0 W/m 1,8 C 2,4 C 8,0 km/h (2 Bft)
20/02/2019 00:25 2,4 C 96 % 1022,3 hPa 0,0 mm 0,3 km/h (0 Bft) E 100 0 min 0,000 mm 0 W/m 1,8 C 2,4 C 3,2 km/h (1 Bft)
20/02/2019 00:20 2,4 C 96 % 1022,4 hPa 0,0 mm 0,0 km/h (0 Bft) E-SE 122 0 min 0,000 mm 0 W/m 1,8 C 2,4 C 0,0 km/h (0 Bft)
20/02/2019 00:15 2,4 C 96 % 1022,4 hPa 0,0 mm 0,0 km/h (0 Bft) SE 124 0 min 0,000 mm 0 W/m 1,8 C 2,4 C 0,0 km/h (0 Bft)
20/02/2019 00:10 2,4 C 96 % 1022,4 hPa 0,0 mm 0,6 km/h (0 Bft) E-SE 121 0 min 0,000 mm 0 W/m 1,8 C 2,4 C 3,2 km/h (1 Bft)
20/02/2019 00:05 2,4 C 96 % 1022,5 hPa 0,0 mm 0,3 km/h (0 Bft) E-SE 118 0 min 0,000 mm 0 W/m 1,8 C 2,4 C 6,4 km/h (2 Bft)
20/02/2019 00:00 2,5 C 95 % 1022,5 hPa 0,0 mm 0,0 km/h (0 Bft) O-SO 247 0 min 0,000 mm 0 W/m 1,8 C 2,5 C 0,0 km/h (0 Bft)
_ Min-Heure 07:10 11:10 04:25 - 00:00 - - - - - 07:10 08:05 00:00
Minimum _ -0,8 C 93 % 1022,2 hPa - 0,0 km/h (0 Bft) - - - - - -1,2 C -2,7 C 0,0 km/h (0 Bft)
_ Max-Heure 11:10 09:00 10:55 09:25 03:50 - - 10:25 11:00 11:10 11:10 11:10 11:05
Maximum _ 9,9 C 98 % 1024,6 hPa 0,2 mm 5,7 km/h
E (1 Bft)
- - 5 min 0,102 mm 387 W/m 8,8 C 9,6 C 12,9 km/h
S (3 Bft)
Moyenne _ 1,2 C 97 % 1023,0 hPa #0,2 mm 2,3 km/h (1 Bft) E - #50 min. #0,127 mm 143 W/m 0,8 C 1,1 C 4,7 km/h (1 Bft)